Weather Roundup
Issued by NWS Chicago, IL

Home | Current Version | Previous Version | Graphics & Text | Print | Product List | Glossary On
Versions: 1 2 3 4 5 6 7 8 9 10 11 12 13 14 15 16 17 18 19 20 21 22 23 24 25 26 27 28 29 30 31 32 33 34 35 36 37 38 39 40 41 42 43 44 45 46 47 48 49 50
000
NZUS59 KLOT 041002
HRRLOT

CHICAGO AREA WEATHER ROUNDUP
NATIONAL WEATHER SERVICE CHICAGO/ROMEOVILLE IL
500 AM CDT TUE AUG 04 2015

NOTE: "FAIR" INDICATES FEW OR NO CLOUDS BELOW 12,000 FEET WITH NO
SIGNIFICANT WEATHER AND/OR OBSTRUCTIONS TO VISIBILITY.

* THESE STATIONS ARE NOT UNDER NWS QUALITY CONTROL. THEY ALSO MAY NOT
  REPORT WEATHER SUCH AS PRECIPITATION OR FOG.

ILZ005-006-012>014-019>023-041100-
NORTHEAST ILLINOIS

CITY           SKY/WX    TMP DP  RH WIND       PRES   REMARKS
OHARE          CLEAR     63  55  75 W3        29.92S
MIDWAY         CLEAR     65  55  70 CALM      29.93R
AURORA         CLEAR     54  51  90 W3        29.94S
JOLIET*        CLEAR     57  56  97 CALM      29.94S
WAUKEGAN       CLEAR     58  55  90 CALM      29.91S
DUPAGE AIRPORT CLEAR     58  55  90 CALM      29.93S
WHEELING       CLEAR     63  54  72 CALM      29.93S
LEWIS AIRPORT* CLEAR     58  55  91 CALM      29.94R
NORTHERLY IS     N/A     68  54  60 W7          N/A
$$

WIZ051-052-058>065-066-070>072-041100-
SOUTHEAST WISCONSIN

CITY           SKY/WX    TMP DP  RH WIND       PRES   REMARKS
MILWAUKEE      CLEAR     64  51  62 W6        29.91S
KENOSHA*       CLEAR     57  53  86 W3        29.92S
RACINE*        CLEAR     61  52  72 W8        29.93R
$$

INZ001>003-010>013-019-020-041100-
NORTHWEST INDIANA

CITY           SKY/WX    TMP DP  RH WIND       PRES   REMARKS
GARY*          CLEAR     57  57 100 W5        29.93S
MICHIGAN CITY* NOT AVBL
RENSSELAER*    NOT AVBL
$$

LMZ740>746-041100-
SOUTHERN LAKE MICHIGAN

STATION/POSITION TIME  SKY/WX   TEMP WIND        PRES    VSBY
                                AIR  DIR/SP/G
                 (UTC)          (F)  (DEG/KT/KT) (MB)    (MI)
HARRISON CRIB    0900            70  290/  9/ 11   N/A
BURNHAM HARBOR   1000            68  270/  4/  8   N/A
CALUMET HARBOR   0900            66  240/  3/  4   N/A
BURNS HARBOR     0900            66  200/  6/  7 1013.9R
MICHIGAN CITY    0900            65  180/  5/  6   N/A
$$

ABBREVIATIONS USED IN REMARKS
   TC - TEMPERATURE IN CELSIUS
  WCI - WIND CHILL INDEX
   HX - HEAT INDEX
  VSB - VISIBILITY
$$


USA.gov is the U.S. government's official web portal to all federal, state and local government web resources and services.